SCP
0 0 0 0 0 0 0 0 0 0 0 0 0 0 0 0 0 0 0 0 0 0 0 0 0 0 0 0 0 0 0 0 0 0 0 0 0 0 0 -0 0 0 0 0
0 0 0 0 0 0 0 0 0 0 0 0 0 0 0 0 0 0 0 0 0 0 0 0 0 0 0 0 0 0 0 0 0 0 0 0 0 0 0 -0 0 0 0 0
0 0 0 0 0 0 0 0 0 0 0 0 0 0 0 0 0 0 0 0 0 0 0 0 0 0 0 0 0 0 0 0 0 0 0 0 0 0 -0 -0 -0 0 0 0
0 0 0 0 0 0 0 0 0 0 0 0 0 0 0 0 0 0 0 0 0 0 0 0 0 0 0 0 0 0 0 0 0 0 0 0 0 0 0 0 0 0 0 0
0 0 0 0 0 0 0 0 0 0 0 0 0 0 0 0 0 0 0 0 0 0 0 0 0 0 0 0 0 0 0 0 0 0 0 0 0 0 0 0 0 0 0 0
0 0 0 0 0 0 0 0 0 0 0 0 0 0 0 0 0 0 0 0 0 0 0 0 0 0 0 0 0 0 0 0 0 0 0 0 0 0 0 0 0 0 0 0
0 0 0 0 0 0 0 0 0 0 0 0 0 0 -0 0 0 0 0 0 0 0 0 0 0 0 0 0 0 0 0 0 0 0 0 0 0 0 0 0 0 0 0 0
0 0 0 0 0 0 0 0 0 0 0 0 0 0 0 0 0 0 0 0 0 0 0 0 0 0 0 0 0 0 0 0 0 0 0 0 0 0 0 0 0 0 0 0
0 0 0 0 0 0 0 0 0 0 0 0 0 0 0 0 0 0 0 0 0 0 0 0 0 0 0 0 0 0 0 0 0 0 0 0 0 0 0 0 0 0 0 0
0 0 0 0 0 0 0 0 0 0 0 0 0 0 0 0 0 0 0 0 0 0 0 0 0 0 0 0 0 0 0 0 0 0 0 0 0 0 0 0 0 0 0 0
0 0 0 0 0 0 0 0 0 0 0 0 0 0 0 0 0 0 0 0 0 0 0 0 0 0 0 0 0 0 0 0 0 0 0 0 0 0 0 0 0 0 0 0
0 0 0 0 0 0 0 0 0 0 0 0 0 0 0 0 0 0 0 0 0 0 0 0 0 0 0 0 0 0 0 0 0 0 0 0 0 0 0 0 0 0 0 0
0 0 0 0 0 0 0 0 0 0 0 0 0 0 0 0 0 0 0 0 0 0 0 0 0 0 0 0 0 0 0 0 0 0 0 0 0 0 0 0 0 0 0 0
0 0 0 0 0 0 0 0 0 0 0 0 0 0 0 0 0 0 0 0 0 0 0 0 0 0 0 0 0 0 0 0 0 0 0 0 0 0 0 0 0 0 0 0
0 0 0 0 0 0 0 0 0 0 0 0 0 0 0 0 0 0 0 0 0 0 0 0 0 0 0 0 0 0 0 0 0 0 0 0 0 0 0 0 0 0 0 0
0 0 0 0 0 0 0 0 0 0 0 0 0 0 0 0 0 0 0 0 0 0 0 0 0 0 0 0 0 0 0 0 0 0 0 0 0 0 0 0 0 0 0 0
-0 0 -0 0 0 0 0 0 0 0 0 0 0 0 0 0 0 0 0 0 0 0 0 0 0 0 0 0 0 0 0 0 0 0 0 0 0 0 0 0 0 0 0 0
0 0 0 0 0 0 0 0 0 0 0 0 0 0 0 0 0 0 0 0 0 0 0 0 0 0 0 0 0 0 0 0 0 0 0 0 0 0 0 0 0 0 0 0
0 0 0 0 0 0 0 0 0 0 0 0 0 0 0 0 0 0 0 0 0 0 0 0 0 0 0 0 0 0 0 0 0 0 0 0 0 0 0 0 0 0 0 0
0 0 0 0 0 0 0 0 0 0 0 0 0 0 0 0 0 0 0 0 0 0 0 0 0 0 0 0 0 0 0 0 0 0 0 0 0 0 0 0 0 0 0 0
0 0 0 0 0 0 0 0 0 0 0 0 0 0 0 0 0 0 0 0 0 0 0 0 0 0 0 0 0 0 0 0 0 0 0 0 0 0 0 0 0 0 0 0
0 0 0 0 0 0 0 0 0 0 0 0 0 0 0 0 0 0 0 0 0 0 0 0 0 0 0 0 0 0 0 0 0 0 0 0 0 0 0 0 0 0 0 0
0 0 0 0 0 0 0 0 0 0 0 0 0 0 0 0 0 0 0 0 0 0 0 0 0 0 0 0 0 0 0 0 0 0 0 0 0 0 0 0 0 0 0 0
0 0 0 0 0 0 0 0 0 0 0 0 0 0 0 0 0 0 0 0 0 0 0 0 0 0 0 0 0 0 0 0 0 0 0 0 0 0 0 0 0 0 0 0
0 0 0 0 0 0 0 0 0 0 0 0 0 0 0 0 0 0 0 0 0 0 0 0 0 0 0 0 0 0 0 0 0 0 0 0 0 0 0 0 0 0 0 0
0 0 0 0 0 0 0 0 0 0 0 0 0 0 0 0 0 0 0 0 0 0 0 0 0 0 0 0 0 0 0 0 0 0 0 0 0 0 0 0 0 0 0 0
Wind_Speed
4 5 4 5 5 4 3 2 2 4 3 2 5 7 8 6 5 6 6 7 7 7 6 6 8 8 8 7 7 7 6 5 4 2 2 1 0 0 1 0 0 1 1 1
5 2 6 7 5 3 2 1 2 3 2 2 4 6 6 6 7 8 8 9 8 7 6 6 7 7 8 7 7 7 6 6 4 3 2 2 2 1 1 1 1 1 1 1
5 4 6 6 5 5 3 4 4 3 2 2 1 5 5 3 3 4 6 8 9 11 11 9 7 7 7 8 8 7 6 6 5 4 2 2 2 2 2 1 1 2 1 1
2 3 7 5 5 5 4 6 5 1 2 2 1 2 6 3 2 4 6 8 9 9 9 9 8 7 8 7 7 7 7 6 5 4 4 3 2 1 2 2 2 2 2 2
3 4 6 6 6 6 5 3 2 1 1 2 1 2 6 1 3 5 7 8 9 10 11 11 10 9 8 8 8 7 7 6 4 4 4 4 2 2 1 1 1 2 2 2
2 2 5 5 3 4 2 3 4 4 3 2 3 3 5 4 7 7 6 7 8 9 9 9 8 7 6 6 7 7 7 5 4 4 4 4 4 2 1 1 1 2 2 2
1 1 1 2 2 1 4 5 4 5 3 4 2 2 7 6 6 8 9 8 8 9 9 9 9 8 8 8 7 7 7 5 4 4 4 4 4 4 3 2 2 2 2 2
2 2 3 3 4 4 3 7 6 3 3 4 3 0 5 4 3 5 6 7 8 8 9 10 11 10 10 9 8 8 7 6 5 4 4 4 4 3 2 2 2 2 2 3
3 3 3 4 4 6 3 2 5 6 1 1 3 3 5 2 1 3 5 6 8 9 9 10 9 10 10 10 9 9 8 6 5 5 5 4 4 3 3 3 2 2 2 2
4 1 2 1 2 1 4 5 5 4 3 1 4 2 4 4 4 4 5 7 8 8 8 9 9 10 9 9 8 8 8 8 6 6 5 4 4 4 3 2 2 2 2 2
2 3 2 2 2 3 1 2 4 4 4 4 1 6 6 8 8 8 8 8 9 9 9 9 8 9 8 7 7 8 7 6 6 6 5 4 4 3 3 2 2 2 2 1
2 5 0 4 5 3 4 4 6 4 1 4 3 8 6 5 6 6 6 6 7 8 8 8 8 7 7 8 8 8 8 7 7 6 5 5 4 3 3 3 3 2 1 1
3 6 4 6 7 4 0 2 5 6 4 3 3 7 5 2 2 3 4 5 5 5 5 5 6 7 8 9 9 8 8 8 7 6 6 5 4 4 4 4 3 2 1 1
5 4 5 5 6 4 3 2 2 5 3 3 5 6 6 4 2 2 3 4 4 4 5 5 6 7 7 8 8 9 8 8 7 7 6 6 6 5 5 4 3 2 2 1
5 2 2 4 4 2 3 4 3 3 6 6 6 5 6 5 4 3 3 3 3 3 4 6 7 7 6 6 7 8 8 8 8 7 7 7 6 5 5 4 3 2 2 2
4 2 2 4 4 3 3 4 4 4 3 4 2 3 5 3 0 1 0 2 3 4 6 7 6 6 7 8 8 8 8 8 8 8 8 7 6 5 5 5 4 3 2 2
2 2 2 3 6 3 4 5 2 1 0 3 3 4 3 2 2 0 0 1 2 4 5 6 7 8 8 8 8 9 9 8 8 9 8 7 7 7 6 5 4 4 3 2
4 3 2 1 3 2 7 4 2 4 3 2 1 1 0 1 1 1 1 0 2 3 4 5 5 6 6 6 6 7 7 7 9 9 8 8 8 8 6 5 5 5 3 3
7 6 3 2 1 5 6 4 1 3 3 4 2 3 3 2 4 5 5 3 2 3 4 4 5 5 5 5 5 6 6 7 8 9 9 9 9 8 7 7 6 5 4 3
4 5 4 3 2 4 6 7 3 5 2 6 3 3 3 5 4 5 8 5 4 3 2 2 2 1 3 4 4 5 6 7 9 9 10 9 9 9 9 9 7 5 4 5
3 3 3 3 3 5 6 6 4 4 4 4 1 2 2 2 3 5 6 5 5 3 2 1 1 1 3 3 3 5 6 8 9 7 7 8 9 10 9 8 6 5 5 4
2 2 2 3 2 5 5 3 3 4 2 1 2 2 1 1 3 4 5 6 6 5 3 1 1 2 2 2 3 5 7 8 5 5 6 8 8 8 7 7 6 6 6 5
2 4 4 5 5 3 2 1 1 2 1 0 1 1 1 2 3 4 5 5 6 6 4 3 2 3 3 2 3 5 7 4 4 5 6 7 7 6 6 8 8 6 5 5
3 2 2 1 2 2 2 2 2 1 1 1 1 2 2 2 3 4 5 5 6 6 5 4 3 3 4 4 4 5 4 4 5 6 6 6 7 6 5 5 6 6 6 6
4 2 1 2 4 3 3 3 2 2 3 3 3 3 3 3 4 4 4 5 5 6 5 4 3 4 6 5 5 4 3 4 5 5 5 5 6 7 6 5 4 6 6 8
4 4 4 6 5 3 5 4 2 1 1 2 2 4 4 3 3 4 4 4 5 6 5 5 5 5 6 5 5 4 3 5 5 5 5 4 4 5 5 5 2 1 3 7
Wind_Direction
115 100 143 180 184 173 151 157 217 238 235 202 232 243 250 240 206 198 191 189 190 186 171 162 157 149 142 144 141 142 139 143 129 112 109 102 73 331 4 329 18 25 14 20
75 130 175 162 159 150 150 161 252 273 261 212 243 262 257 230 209 195 186 182 180 166 156 164 154 148 148 151 148 145 146 147 145 145 155 162 164 209 235 302 353 333 329 331
134 180 164 162 155 167 190 195 213 224 339 344 340 318 292 267 209 191 183 176 172 172 170 172 160 155 152 154 157 150 149 146 146 139 113 77 54 31 13 345 323 302 287 293
138 176 167 171 177 172 212 221 204 199 62 308 121 287 293 268 209 199 188 174 177 176 171 170 166 165 165 164 153 146 147 148 149 136 127 133 143 182 234 241 262 287 293 295
189 182 170 182 199 179 203 200 177 181 111 337 314 155 287 278 199 213 199 184 182 179 175 176 175 173 167 158 151 150 146 150 155 145 142 143 157 201 239 256 282 298 301 298
210 191 177 197 204 183 148 64 41 50 69 316 243 155 266 231 208 205 202 189 181 176 176 174 169 158 155 154 150 149 147 158 162 152 153 160 170 177 179 261 277 291 295 298
17 321 208 150 106 85 93 83 42 16 16 265 264 152 246 247 216 192 188 186 180 174 171 167 166 166 164 164 161 157 155 166 171 158 164 174 179 177 188 217 234 252 277 286
120 276 226 189 170 163 163 137 147 170 224 286 343 269 268 277 209 170 166 169 169 176 178 178 178 174 173 172 168 164 165 171 174 169 174 176 179 179 201 215 222 232 241 253
160 251 256 203 182 144 134 165 169 137 146 12 328 319 323 355 84 145 157 164 181 187 188 187 182 179 178 177 177 173 171 173 181 180 176 178 186 190 205 224 232 242 249 252
154 182 283 227 78 45 153 150 95 97 110 17 323 280 238 237 229 209 192 192 199 194 191 190 187 187 186 183 179 173 172 177 182 183 185 184 196 204 207 211 238 253 259 261
104 121 339 32 184 210 136 105 107 110 143 140 265 275 234 212 210 206 208 203 196 193 193 192 193 192 186 178 174 176 178 176 181 188 190 186 200 207 206 214 234 242 248 253
87 111 107 273 272 210 172 171 141 136 209 152 165 268 277 223 221 207 209 210 201 196 195 192 189 182 182 183 183 182 182 183 189 187 185 192 198 198 203 221 240 232 228 239
95 94 59 352 343 350 317 183 144 131 118 140 158 267 301 318 266 222 201 202 198 195 193 189 185 186 191 191 190 190 188 191 190 183 182 188 193 197 205 216 225 215 203 224
101 102 147 190 231 252 279 278 171 125 140 203 217 245 297 305 281 248 209 192 178 178 180 184 196 201 202 198 195 194 197 192 186 183 183 191 198 201 205 205 205 203 191 189
85 114 220 238 249 235 244 253 235 190 190 191 230 230 257 252 233 227 209 183 169 183 192 196 201 206 206 204 203 198 198 193 187 184 190 200 201 199 197 194 198 199 187 188
55 88 17 329 318 319 299 277 244 233 212 206 211 262 272 262 173 31 141 170 192 209 211 211 209 207 208 205 203 200 200 196 186 189 198 198 190 191 194 195 192 185 183 179
14 86 58 296 311 7 304 268 223 187 49 165 189 242 280 12 43 51 39 170 228 236 226 216 213 213 213 209 201 200 201 192 187 195 198 194 189 190 196 192 183 189 193 185
170 119 133 259 12 261 251 275 157 113 37 35 86 297 283 169 192 108 70 157 265 267 255 240 228 224 220 210 205 200 189 186 191 197 199 196 190 192 192 186 191 196 191 191
169 150 141 128 209 283 305 322 318 128 17 355 38 10 360 4 34 4 349 332 268 257 249 242 231 222 214 209 203 187 186 188 193 200 203 199 192 190 187 191 198 196 188 196
94 114 127 133 161 239 267 300 313 100 24 334 18 29 14 44 39 306 319 324 323 315 288 278 282 235 210 218 191 179 192 191 203 208 207 199 192 190 193 198 197 192 188 199
39 56 128 169 205 258 276 306 46 97 246 295 18 63 57 102 216 268 316 336 331 318 310 317 336 250 234 220 179 188 195 208 213 210 203 196 194 195 195 194 191 187 188 191
177 158 184 145 175 254 306 41 98 215 243 324 23 34 45 320 315 330 344 347 342 336 330 330 313 289 278 215 187 205 217 220 208 193 195 198 197 198 193 186 190 185 182 186
192 192 188 181 204 235 337 118 211 148 124 335 12 346 2 357 344 339 336 335 335 327 318 313 295 293 297 260 207 219 235 216 194 191 201 201 196 198 187 185 187 185 184 188
305 13 99 328 281 320 1 18 21 53 71 358 5 1 8 349 336 337 331 328 327 325 316 312 313 302 294 284 257 240 235 204 189 198 206 199 190 193 191 189 188 186 189 193
266 346 10 286 284 337 354 351 345 3 20 16 8 3 357 347 333 331 328 324 321 321 318 314 294 277 276 279 277 272 235 197 202 208 206 204 197 191 190 190 194 195 201 200
225 210 208 239 242 220 266 285 300 357 352 347 356 348 346 345 325 328 323 320 323 321 319 313 300 287 284 281 274 269 241 208 202 214 211 206 202 195 187 181 179 232 210 208